recyear,recmonth,recday,DailyET,EstimET
2023,1,1,0.30,
2023,1,2,0.00,
2023,1,3,0.00,
2023,1,4,0.50,
2023,1,5,0.50,
2023,1,6,0.50,
2023,1,7,0.00,
2023,1,8,0.40,
2023,1,9,0.60,
2023,1,10,0.30,
2023,1,11,0.10,
2023,1,12,0.00,
2023,1,13,0.20,
2023,1,14,0.60,
2023,1,15,1.10,
2023,1,16,1.40,
2023,1,17,0.00,
2023,1,18,0.00,
2023,1,19,0.10,
2023,1,20,0.40,
2023,1,21,0.00,
2023,1,22,0.00,
2023,1,23,0.40,
2023,1,24,0.00,
2023,1,25,0.00,
2023,1,26,0.00,
2023,1,27,0.60,
2023,1,28,0.50,
2023,1,29,0.00,
2023,1,30,0.00,
2023,1,31,0.20,
2023,2,1,0.40,
2023,2,2,0.60,
2023,2,3,0.50,
2023,2,4,0.60,
2023,2,5,0.50,
2023,2,6,1.10,
2023,2,7,0.60,
2023,2,8,0.00,
2023,2,9,0.30,
2023,2,10,0.60,
2023,2,11,0.60,
2023,2,12,0.60,
2023,2,13,0.60,
2023,2,14,1.00,
2023,2,15,0.60,
2023,2,16,0.00,
2023,2,17,0.60,
2023,2,18,0.90,
2023,2,19,0.70,
2023,2,20,0.90,
2023,2,21,0.70,
2023,2,22,0.50,
2023,2,23,0.60,
2023,2,24,0.10,
2023,2,25,0.60,
2023,2,26,0.90,
2023,2,27,1.80,
2023,2,28,1.00,
2023,3,1,1.00,
2023,3,2,0.20,
2023,3,3,0.80,
2023,3,4,0.90,
2023,3,5,1.20,
2023,3,6,0.90,
2023,3,7,0.30,
2023,3,8,0.00,
2023,3,9,0.00,
2023,3,10,0.30,
2023,3,11,0.00,
2023,3,12,0.80,
2023,3,13,0.50,
2023,3,14,0.90,
2023,3,15,1.70,
2023,3,16,0.50,
2023,3,17,0.70,
2023,3,18,0.70,
2023,3,19,0.90,
2023,3,20,1.50,
2023,3,21,0.10,
2023,3,22,0.10,
2023,3,23,0.40,
2023,3,24,0.50,
2023,3,25,1.10,
2023,3,26,0.10,
2023,3,27,0.70,
2023,3,28,1.00,
2023,3,29,1.30,
2023,3,30,1.80,
2023,3,31,2.90,
2023,4,1,1.50,
2023,4,2,2.00,
2023,4,3,1.00,
2023,4,4,2.30,
2023,4,5,1.30,
2023,4,6,1.00,
2023,4,7,1.40,
2023,4,8,1.40,
2023,4,9,1.10,
2023,4,10,1.50,
2023,4,11,1.70,
2023,4,12,2.30,
2023,4,13,2.60,
2023,4,14,2.40,
2023,4,15,0.20,
2023,4,16,1.70,
2023,4,17,1.50,
2023,4,18,1.70,
2023,4,19,2.40,
2023,4,20,1.10,
2023,4,21,1.50,
2023,4,22,1.30,
2023,4,23,1.30,
2023,4,24,1.40,
2023,4,25,0.80,
2023,4,26,1.20,
2023,4,27,0.40,
2023,4,28,0.00,
2023,4,29,1.90,
2023,4,30,1.80,
2023,5,1,1.80,
2023,5,2,1.80,
2023,5,3,1.50,
2023,5,4,1.20,
2023,5,5,1.30,
2023,5,6,2.70,
2023,5,7,2.60,
2023,5,8,1.80,
2023,5,9,1.60,
2023,5,10,1.70,
2023,5,11,1.10,
2023,5,12,2.10,
2023,5,13,1.70,
2023,5,14,0.70,
2023,5,15,0.10,
2023,5,16,0.50,
2023,5,17,1.60,
2023,5,18,1.40,
2023,5,19,0.70,
2023,5,20,1.70,
2023,5,21,1.70,
2023,5,22,1.60,
2023,5,23,1.40,
2023,5,24,1.70,
2023,5,25,1.50,
2023,5,26,1.70,
2023,5,27,2.00,
2023,5,28,0.90,
2023,5,29,1.80,
2023,5,30,1.40,
2023,5,31,1.40,
2023,6,1,1.00,
2023,6,2,1.60,
2023,6,3,1.10,
2023,6,4,1.90,
2023,6,5,1.60,
2023,6,6,1.80,
2023,6,7,1.70,
2023,6,8,1.20,
2023,6,9,1.80,
2023,6,10,0.40,
2023,6,11,0.90,
2023,6,12,1.10,
2023,6,13,1.20,
2023,6,14,1.80,
2023,6,15,1.50,
2023,6,16,1.80,
2023,6,17,1.50,
2023,6,18,1.50,
2023,6,19,2.10,
2023,6,20,2.10,
2023,6,21,1.20,
2023,6,22,1.70,
2023,6,23,1.80,
2023,6,24,1.90,
2023,6,25,2.10,
2023,6,26,1.70,
2023,6,27,1.60,
2023,6,28,2.00,
2023,6,29,1.70,
2023,6,30,1.70,
2023,7,1,1.50,
2023,7,2,1.80,
2023,7,3,2.00,
2023,7,4,2.30,
2023,7,5,0.90,
2023,7,6,1.10,
2023,7,7,0.80,
2023,7,8,1.10,
2023,7,9,1.80,
2023,7,10,1.80,
2023,7,11,1.80,
2023,7,12,1.20,
2023,7,13,1.20,
2023,7,14,0.90,
2023,7,15,1.50,
2023,7,16,0.80,
2023,7,17,1.70,
2023,7,18,1.70,
2023,7,19,0.10,
2023,7,20,1.70,
2023,7,21,1.30,
2023,7,22,1.20,
2023,7,23,1.80,
2023,7,24,2.50,
2023,7,25,2.40,
2023,7,26,2.80,
2023,7,27,1.40,
2023,7,28,2.90,
2023,7,29,1.40,
2023,7,30,2.00,
2023,7,31,2.00,
2023,8,1,1.50,
2023,8,2,1.60,
2023,8,3,1.50,
2023,8,4,1.80,
2023,8,5,1.60,
2023,8,6,1.80,
2023,8,7,1.20,
2023,8,8,1.60,
2023,8,9,0.10,
2023,8,10,0.00,
2023,8,14,0.30,
2023,8,15,1.60,
2023,8,16,1.90,
2023,8,17,1.80,
2023,8,18,1.90,
2023,8,19,2.90,
2023,8,20,1.80,
2023,8,21,1.90,
2023,8,22,1.40,
2023,8,23,2.00,
2023,8,24,2.90,
2023,8,25,2.80,
2023,8,26,1.40,
2023,8,27,1.60,
2023,8,28,1.20,
2023,8,29,1.50,
2023,8,30,1.40,
2023,8,31,2.10,
2023,9,1,2.50,
2023,9,2,2.10,
2023,9,3,2.00,
2023,9,4,2.90,
2023,9,5,2.90,
2023,9,6,1.50,
2023,9,7,1.50,
2023,9,8,1.40,
2023,9,9,1.40,
2023,9,10,1.20,
2023,9,11,0.00,
2023,9,12,0.70,
2023,9,13,1.40,
2023,9,14,1.40,
2023,9,15,0.00,
2023,9,16,0.90,
2023,9,17,1.30,
2023,9,18,1.60,
2023,9,19,1.40,
2023,9,20,2.10,
2023,9,21,1.60,
2023,9,22,1.60,
2023,9,23,1.10,
2023,9,24,1.40,
2023,9,25,1.40,
2023,9,26,1.20,
2023,9,27,1.20,
2023,9,28,1.80,
2023,9,29,2.40,
2023,9,30,2.70,
2023,10,1,2.20,
2023,10,2,1.60,
2023,10,3,1.30,
2023,10,4,0.80,
2023,10,5,1.40,
2023,10,6,0.40,
2023,10,7,0.80,
2023,10,8,1.10,
2023,10,9,1.00,
2023,10,10,0.40,
2023,10,11,0.90,
2023,10,12,0.00,
2023,10,13,0.00,
2023,10,14,0.00,
2023,10,15,0.00,
2023,10,16,0.70,
2023,10,17,0.80,
2023,10,18,0.20,
2023,10,19,0.70,
2023,10,20,0.80,
2023,10,21,0.70,
2023,10,22,0.70,
2023,10,23,0.50,
2023,10,24,0.00,
2023,10,25,0.00,
2023,10,26,0.50,
2023,10,27,0.30,
2023,10,28,0.00,
2023,10,29,0.00,
2023,10,30,0.40,
2023,10,31,0.50,
2023,11,1,0.50,
2023,11,2,0.70,
2023,11,3,0.90,
2023,11,4,0.00,
2023,11,5,0.70,
2023,11,6,0.80,
2023,11,7,0.60,
2023,11,8,0.50,
2023,11,9,0.50,
2023,11,10,0.60,
2023,11,11,0.00,
2023,11,12,0.70,
2023,11,13,0.80,
2023,11,14,0.70,
2023,11,15,0.60,
2023,11,16,0.70,
2023,11,17,0.60,
2023,11,18,0.50,
2023,11,19,0.70,
2023,11,20,0.10,
2023,11,21,0.60,
2023,11,22,0.60,
2023,11,23,0.60,
2023,11,24,0.00,
2023,11,25,0.00,
2023,11,26,0.30,
2023,11,27,0.50,
2023,11,28,0.50,
2023,11,29,0.50,
2023,11,30,0.00,
2023,12,1,0.00,
2023,12,2,0.00,
2023,12,3,0.00,
2023,12,4,0.40,
2023,12,5,0.20,
2023,12,6,1.20,
2023,12,7,1.80,
2023,12,8,0.50,
2023,12,9,0.50,
2023,12,10,0.30,
2023,12,11,0.50,
2023,12,12,0.20,
2023,12,13,0.20,
2023,12,14,0.00,
2023,12,15,0.00,
2023,12,16,0.00,
2023,12,17,0.50,
2023,12,18,0.50,
2023,12,19,0.40,
2023,12,20,0.20,
2023,12,21,0.00,
2023,12,22,0.00,
2023,12,23,0.70,
2023,12,24,1.00,
2023,12,25,0.00,
2023,12,26,0.00,
2023,12,27,0.00,
2023,12,28,0.10,
2023,12,29,0.50,
2023,12,30,0.30,
2023,12,31,0.00,
2022,1,1,0.00,
2022,1,2,0.60,
2022,1,3,1.30,
2022,1,4,1.20,
2022,1,5,0.40,
2022,1,6,0.60,
2022,1,7,0.70,
2022,1,8,0.30,
2022,1,9,1.10,
2022,1,10,1.30,
2022,1,11,1.80,
2022,1,12,1.30,
2022,1,13,1.80,
2022,1,14,0.50,
2022,1,15,0.30,
2022,1,16,1.20,
2022,1,17,1.60,
2022,1,18,1.70,
2022,1,19,0.50,
2022,1,20,0.90,
2022,1,21,1.10,
2022,1,22,1.60,
2022,1,23,1.80,
2022,1,24,1.80,
2022,1,25,0.70,
2022,1,26,1.10,
2022,1,27,1.30,
2022,1,28,0.90,
2022,1,29,1.80,
2022,1,30,1.60,
2022,1,31,2.80,
2022,2,1,0.70,
2022,2,2,0.60,
2022,2,3,1.20,
2022,2,4,1.30,
2022,2,5,1.90,
2022,2,6,1.80,
2022,2,7,1.80,
2022,2,8,2.20,
2022,2,9,2.40,
2022,2,10,2.50,
2022,2,11,1.90,
2022,2,12,1.40,
2022,2,13,1.70,
2022,2,14,2.30,
2022,2,15,2.70,
2022,2,16,2.80,
2022,2,17,0.70,
2022,2,18,2.40,
2022,2,19,1.90,
2022,2,20,3.50,
2022,2,21,2.80,
2022,2,22,0.90,
2022,2,23,1.10,
2022,2,24,0.40,
2022,2,25,1.50,
2022,2,26,2.00,
2022,2,27,2.70,
2022,2,28,3.00,
2022,3,1,3.40,
2022,3,2,3.50,
2022,3,3,2.70,
2022,3,4,2.40,
2022,3,5,3.80,
2022,3,6,0.80,
2022,3,7,2.00,
2022,3,8,2.20,
2022,3,9,1.80,
2022,3,10,0.80,
2022,3,11,1.80,
2022,3,12,2.30,
2022,3,13,3.80,
2022,3,14,1.80,
2022,3,15,3.50,
2022,3,16,4.20,
2022,3,17,2.40,
2022,3,18,1.30,
2022,3,19,4.10,
2022,3,20,4.50,
2022,3,21,1.40,
2022,3,22,0.50,
2022,3,23,0.10,
2022,3,24,1.00,
2022,3,25,2.10,
2022,3,26,3.50,
2022,3,27,3.40,
2022,3,28,3.80,
2022,3,29,3.00,
2022,3,30,1.60,
2022,3,31,2.40,
2022,4,1,4.00,
2022,4,2,4.30,
2022,4,3,1.80,
2022,4,4,3.90,
2022,4,5,1.50,
2022,4,6,3.80,
2022,4,7,2.00,
2022,4,8,4.00,
2022,4,9,4.60,
2022,4,10,4.50,
2022,4,11,4.10,
2022,4,12,6.60,
2022,4,13,3.10,
2022,4,14,4.40,
2022,4,15,3.70,
2022,4,16,3.60,
2022,4,17,1.10,
2022,4,18,4.10,
2022,4,19,1.80,
2022,4,20,2.10,
2022,4,21,4.00,
2022,4,22,3.80,
2022,4,23,4.70,
2022,4,24,5.40,
2022,4,25,4.60,
2022,4,26,5.50,
2022,4,27,5.80,
2022,4,28,5.50,
2022,4,29,5.10,
2022,4,30,2.90,
2022,5,1,4.80,
2022,5,2,0.40,
2022,5,3,1.60,
2022,5,4,0.40,
2022,5,5,0.40,
2022,5,6,2.20,
2022,5,7,6.00,
2022,5,8,6.20,
2022,5,9,7.60,
2022,5,10,7.40,
2022,5,11,6.70,
2022,5,12,7.40,
2022,5,13,5.40,
2022,5,14,5.70,
2022,5,15,4.00,
2022,5,16,5.70,
2022,5,17,5.80,
2022,5,18,5.90,
2022,5,19,5.50,
2022,5,20,3.70,
2022,5,21,3.40,
2022,5,22,4.50,
2022,5,23,1.60,
2022,5,24,1.00,
2022,5,25,0.60,
2022,5,26,2.20,
2022,5,27,6.40,
2022,5,28,7.10,
2022,5,29,6.20,
2022,5,30,7.10,
2022,5,31,5.00,
2022,6,1,1.30,
2022,6,2,5.70,
2022,6,3,5.90,
2022,6,4,3.10,
2022,6,5,4.60,
2022,6,6,5.40,
2022,6,7,6.10,
2022,6,8,5.20,
2022,6,9,3.10,
2022,6,10,4.60,
2022,6,11,6.10,
2022,6,12,2.40,
2022,6,13,7.70,
2022,6,14,7.30,
2022,6,15,6.00,
2022,6,16,6.70,
2022,6,17,6.80,
2022,6,18,6.50,
2022,6,19,7.00,
2022,6,20,7.50,
2022,6,21,6.40,
2022,6,22,1.30,
2022,6,23,3.20,
2022,6,24,5.50,
2022,6,25,5.10,
2022,6,26,4.40,
2022,6,27,5.00,
2022,6,28,6.20,
2022,6,29,6.70,
2022,6,30,6.90,
2022,7,1,2.60,
2022,7,2,2.30,
2022,7,3,4.70,
2022,7,4,7.30,
2022,7,5,7.20,
2022,7,6,4.60,
2022,7,7,5.40,
2022,7,8,3.90,
2022,7,9,5.40,
2022,7,10,6.40,
2022,7,11,6.20,
2022,7,12,6.30,
2022,7,13,6.20,
2022,7,14,5.80,
2022,7,15,6.40,
2022,7,16,1.90,
2022,7,17,5.00,
2022,7,18,6.20,
2022,7,19,5.50,
2022,7,20,6.40,
2022,7,21,5.20,
2022,7,22,6.50,
2022,7,23,7.10,
2022,7,24,3.30,
2022,7,25,1.90,
2022,7,26,0.90,
2022,7,27,5.40,
2022,7,28,3.90,
2022,7,29,2.80,
2022,7,30,5.60,
2022,7,31,5.00,
2022,8,1,6.20,
2022,8,2,6.70,
2022,8,3,3.90,
2022,8,4,5.30,
2022,8,5,6.00,
2022,8,6,7.00,
2022,8,7,5.90,
2022,8,8,3.10,
2022,8,9,5.50,
2022,8,10,5.60,
2022,8,11,5.80,
2022,8,12,5.50,
2022,8,13,6.30,
2022,8,14,5.60,
2022,8,15,5.90,
2022,8,16,0.90,
2022,8,17,5.00,
2022,8,18,5.20,
2022,8,19,1.20,
2022,8,20,4.80,
2022,8,21,5.20,
2022,8,22,5.30,
2022,8,23,4.80,
2022,8,24,5.20,
2022,8,25,5.00,
2022,8,26,5.20,
2022,8,27,3.60,
2022,8,28,6.10,
2022,8,29,4.70,
2022,8,30,5.20,
2022,8,31,5.20,
2022,9,1,5.00,
2022,9,2,5.20,
2022,9,3,5.00,
2022,9,4,4.10,
2022,9,5,4.10,
2022,9,6,5.00,
2022,9,7,4.50,
2022,9,8,5.00,
2022,9,9,4.80,
2022,9,10,0.00,
2022,9,11,4.40,
2022,9,12,4.20,
2022,9,13,4.50,
2022,9,14,4.80,
2022,9,15,5.10,
2022,9,16,4.10,
2022,9,17,4.80,
2022,9,18,4.60,
2022,9,19,5.40,
2022,9,20,5.20,
2022,9,21,2.60,
2022,9,22,0.60,
2022,9,23,1.80,
2022,9,24,4.20,
2022,9,25,4.20,
2022,9,26,3.80,
2022,9,27,4.10,
2022,9,28,3.80,
2022,9,29,3.80,
2022,9,30,3.20,
2022,10,1,3.80,
2022,10,2,3.90,
2022,10,3,4.40,
2022,10,4,4.00,
2022,10,5,3.60,
2022,10,6,3.80,
2022,10,7,0.80,
2022,10,8,2.80,
2022,10,9,3.40,
2022,10,10,3.40,
2022,10,11,4.50,
2022,10,12,3.70,
2022,10,13,3.40,
2022,10,14,2.70,
2022,10,15,2.40,
2022,10,16,2.40,
2022,10,17,2.40,
2022,10,18,2.20,
2022,10,19,2.40,
2022,10,20,3.00,
2022,10,21,4.10,
2022,10,22,4.60,
2022,10,23,4.10,
2022,10,24,0.80,
2022,10,25,2.40,
2022,10,26,2.00,
2022,10,27,2.00,
2022,10,28,2.40,
2022,10,29,2.30,
2022,10,30,1.50,
2022,10,31,2.50,
2022,11,1,3.50,
2022,11,2,3.60,
2022,11,3,3.80,
2022,11,4,0.30,
2022,11,5,2.60,
2022,11,6,2.70,
2022,11,7,2.10,
2022,11,8,1.90,
2022,11,9,2.50,
2022,11,10,1.70,
2022,11,11,1.30,
2022,11,12,1.00,
2022,11,13,1.50,
2022,11,14,0.50,
2022,11,15,1.00,
2022,11,16,1.30,
2022,11,17,0.50,
2022,11,18,1.10,
2022,11,19,1.30,
2022,11,20,1.70,
2022,11,21,1.70,
2022,11,22,1.90,
2022,11,23,1.80,
2022,11,24,1.20,
2022,11,25,1.60,
2022,11,26,0.40,
2022,11,27,0.90,
2022,11,28,1.80,
2022,11,29,0.50,
2022,11,30,1.20,
2022,12,1,1.60,
2022,12,2,2.90,
2022,12,3,0.80,
2022,12,4,1.00,
2022,12,5,1.40,
2022,12,6,0.80,
2022,12,7,0.90,
2022,12,8,0.00,
2022,12,9,0.00,
2022,12,10,0.80,
2022,12,11,0.80,
2022,12,12,1.00,
2022,12,13,2.00,
2022,12,14,0.60,
2022,12,15,1.00,
2022,12,16,0.80,
2022,12,17,1.10,
2022,12,18,1.00,
2022,12,19,0.00,
2022,12,20,0.00,
2022,12,21,0.00,
2022,12,22,0.20,
2022,12,23,0.60,
2022,12,24,0.40,
2022,12,25,0.60,
2022,12,26,0.60,
2022,12,27,1.00,
2022,12,28,1.00,
2022,12,29,2.00,
2022,12,30,1.00,
2022,12,31,1.20,
2021,1,1,0.40,
2021,1,2,0.80,
2021,1,3,1.20,
2021,1,4,1.50,
2021,1,5,1.70,
2021,1,6,0.50,
2021,1,7,0.60,
2021,1,8,0.70,
2021,1,9,0.40,
2021,1,10,0.80,
2021,1,11,1.60,
2021,1,12,1.70,
2021,1,13,1.40,
2021,1,14,2.50,
2021,1,15,1.00,
2021,1,16,1.00,
2021,1,17,1.70,
2021,1,18,1.80,
2021,1,19,1.60,
2021,1,20,1.40,
2021,1,21,1.80,
2021,1,22,1.20,
2021,1,23,0.00,
2021,1,24,0.40,
2021,1,25,0.00,
2021,1,26,0.30,
2021,1,27,0.60,
2021,1,28,0.70,
2021,1,29,1.40,
2021,1,30,0.20,
2021,1,31,0.30,
2021,2,1,0.80,
2021,2,2,1.80,
2021,2,3,2.60,
2021,2,4,1.40,
2021,2,5,1.80,
2021,2,6,0.20,
2021,2,7,0.00,
2021,2,8,0.00,
2021,2,9,0.60,
2021,2,10,0.00,
2021,2,11,0.40,
2021,2,12,0.10,
2021,2,13,0.60,
2021,2,14,0.20,
2021,2,15,0.00,
2021,2,16,0.80,
2021,2,17,1.10,
2021,2,18,1.30,
2021,2,19,1.50,
2021,2,20,2.40,
2021,2,21,0.90,
2021,2,22,2.70,
2021,2,23,3.10,
2021,2,24,2.10,
2021,2,25,1.10,
2021,2,26,2.50,
2021,2,27,3.00,
2021,2,28,2.40,
2021,3,1,2.70,
2021,3,2,3.20,
2021,3,3,3.50,
2021,3,4,3.30,
2021,3,5,2.60,
2021,3,6,3.30,
2021,3,7,3.90,
2021,3,8,3.40,
2021,3,9,4.90,
2021,3,10,4.60,
2021,3,11,3.20,
2021,3,12,0.10,
2021,3,13,0.60,
2021,3,14,1.10,
2021,3,15,1.30,
2021,3,16,1.90,
2021,3,17,0.00,
2021,3,18,2.50,
2021,3,19,3.60,
2021,3,20,4.20,
2021,3,21,4.20,
2021,3,22,0.90,
2021,3,23,2.50,
2021,3,24,1.20,
2021,3,25,0.50,
2021,3,26,2.10,
2021,3,27,2.00,
2021,3,28,4.10,
2021,3,29,4.70,
2021,3,30,3.70,
2021,3,31,3.40,
2021,4,1,3.60,
2021,4,2,4.50,
2021,4,3,4.50,
2021,4,4,5.50,
2021,4,5,5.90,
2021,4,6,2.30,
2021,4,7,1.30,
2021,4,8,2.80,
2021,4,9,3.80,
2021,4,10,3.80,
2021,4,11,5.40,
2021,4,12,1.80,
2021,4,13,3.70,
2021,4,14,3.80,
2021,4,15,3.50,
2021,4,16,0.30,
2021,4,17,1.20,
2021,4,18,3.60,
2021,4,19,3.10,
2021,4,20,2.80,
2021,4,21,3.60,
2021,4,22,2.90,
2021,4,23,0.20,
2021,4,24,4.50,
2021,4,25,5.60,
2021,4,26,6.60,
2021,4,27,4.40,
2021,4,28,2.10,
2021,4,29,5.50,
2021,4,30,6.10,
2021,5,1,6.80,
2021,5,2,3.20,
2021,5,3,4.90,
2021,5,4,4.90,
2021,5,5,3.40,
2021,5,6,4.80,
2021,5,7,2.40,
2021,5,8,5.50,
2021,5,9,1.10,
2021,5,10,2.40,
2021,5,11,1.70,
2021,5,12,4.10,
2021,5,13,5.70,
2021,5,14,4.40,
2021,5,15,3.80,
2021,5,16,1.30,
2021,5,17,1.80,
2021,5,18,3.50,
2021,5,19,2.50,
2021,5,20,1.90,
2021,5,21,5.90,
2021,5,22,3.40,
2021,5,23,3.20,
2021,5,24,3.20,
2021,5,25,4.70,
2021,5,26,5.30,
2021,5,27,4.70,
2021,5,28,2.70,
2021,5,29,3.00,
2021,5,30,1.60,
2021,5,31,0.70,
2021,6,1,2.70,
2021,6,2,4.50,
2021,6,3,6.10,
2021,6,4,6.10,
2021,6,5,6.60,
2021,6,6,4.10,
2021,6,7,5.80,
2021,6,8,5.60,
2021,6,9,5.90,
2021,6,10,6.00,
2021,6,11,3.30,
2021,6,12,6.30,
2021,6,13,6.50,
2021,6,14,4.10,
2021,6,15,6.50,
2021,6,16,6.30,
2021,6,17,6.80,
2021,6,18,6.70,
2021,6,19,5.10,
2021,6,20,6.50,
2021,6,21,5.10,
2021,6,22,6.60,
2021,6,23,6.80,
2021,6,24,3.70,
2021,6,25,3.50,
2021,6,26,3.90,
2021,6,27,4.40,
2021,6,28,4.30,
2021,6,29,2.90,
2021,6,30,2.80,
2021,7,1,3.60,
2021,7,2,5.70,
2021,7,3,5.60,
2021,7,4,6.40,
2021,7,5,6.40,
2021,7,6,6.60,
2021,7,7,4.00,
2021,7,8,5.90,
2021,7,9,5.00,
2021,7,10,5.20,
2021,7,11,3.60,
2021,7,12,6.10,
2021,7,13,5.70,
2021,7,14,5.50,
2021,7,15,3.20,
2021,7,16,2.90,
2021,7,17,3.70,
2021,7,18,4.70,
2021,7,19,5.40,
2021,7,20,5.20,
2021,7,21,4.90,
2021,7,22,5.90,
2021,7,23,6.30,
2021,7,24,6.20,
2021,7,25,2.40,
2021,7,26,4.80,
2021,7,27,5.80,
2021,7,28,6.30,
2021,7,29,6.20,
2021,7,30,5.40,
2021,7,31,4.80,
2021,8,1,5.10,
2021,8,2,4.80,
2021,8,3,5.00,
2021,8,4,4.90,
2021,8,5,3.60,
2021,8,6,6.00,
2021,8,7,5.60,
2021,8,8,4.60,
2021,8,9,5.60,
2021,8,10,4.10,
2021,8,11,6.50,
2021,8,12,5.90,
2021,8,13,4.20,
2021,8,14,5.00,
2021,8,15,4.90,
2021,8,16,4.80,
2021,8,17,5.30,
2021,8,18,5.20,
2021,8,19,4.40,
2021,8,20,4.80,
2021,8,21,4.80,
2021,8,22,5.40,
2021,8,23,5.10,
2021,8,24,6.30,
2021,8,25,6.10,
2021,8,26,6.50,
2021,8,27,6.30,
2021,8,28,5.60,
2021,8,29,1.70,
2021,8,30,4.40,
2021,8,31,4.80,
2021,9,1,4.80,
2021,9,2,3.40,
2021,9,3,4.70,
2021,9,4,2.70,
2021,9,5,3.90,
2021,9,6,5.40,
2021,9,7,5.10,
2021,9,8,4.70,
2021,9,9,4.10,
2021,9,10,4.20,
2021,9,11,5.50,
2021,9,12,5.30,
2021,9,13,5.40,
2021,9,14,1.20,
2021,9,15,3.60,
2021,9,16,5.50,
2021,9,17,4.40,
2021,9,18,4.20,
2021,9,19,4.70,
2021,9,20,4.50,
2021,9,21,3.90,
2021,9,22,4.20,
2021,9,23,4.50,
2021,9,24,2.60,
2021,9,25,4.00,
2021,9,26,5.60,
2021,9,27,5.10,
2021,9,28,4.80,
2021,9,29,2.60,
2021,9,30,1.70,
2021,10,1,2.50,
2021,10,2,1.40,
2021,10,3,3.80,
2021,10,4,3.90,
2021,10,5,3.60,
2021,10,6,2.00,
2021,10,7,3.50,
2021,10,8,3.80,
2021,10,9,3.10,
2021,10,10,2.00,
2021,10,11,3.20,
2021,10,12,3.20,
2021,10,13,3.90,
2021,10,14,2.60,
2021,10,15,2.70,
2021,10,16,3.00,
2021,10,17,3.20,
2021,10,18,3.30,
2021,10,19,4.50,
2021,10,20,3.30,
2021,10,21,2.30,
2021,10,22,2.80,
2021,10,23,1.50,
2021,10,24,1.50,
2021,10,25,0.70,
2021,10,26,1.60,
2021,10,27,1.40,
2021,10,28,2.40,
2021,10,29,2.70,
2021,10,30,2.50,
2021,10,31,2.30,
2021,11,1,0.50,
2021,11,2,0.40,
2021,11,3,0.90,
2021,11,4,1.60,
2021,11,5,1.40,
2021,11,6,2.30,
2021,11,7,3.50,
2021,11,8,2.20,
2021,11,9,1.70,
2021,11,10,0.60,
2021,11,11,2.50,
2021,11,12,1.20,
2021,11,13,1.00,
2021,11,14,1.70,
2021,11,15,2.50,
2021,11,16,1.60,
2021,11,17,2.00,
2021,11,18,1.60,
2021,11,19,1.20,
2021,11,20,1.20,
2021,11,21,1.50,
2021,11,22,1.30,
2021,11,23,2.90,
2021,11,24,2.00,
2021,11,25,1.20,
2021,11,26,2.20,
2021,11,27,2.10,
2021,11,28,1.40,
2021,11,29,1.90,
2021,11,30,0.10,
2021,12,1,2.00,
2021,12,2,1.90,
2021,12,3,1.80,
2021,12,4,1.30,
2021,12,5,2.10,
2021,12,6,1.00,
2021,12,7,0.70,
2021,12,8,1.90,
2021,12,9,1.60,
2021,12,10,1.50,
2021,12,11,1.20,
2021,12,12,1.60,
2021,12,13,1.50,
2021,12,14,1.80,
2021,12,15,2.90,
2021,12,16,1.30,
2021,12,17,1.40,
2021,12,18,0.00,
2021,12,19,1.10,
2021,12,20,1.20,
2021,12,21,1.10,
2021,12,22,1.30,
2021,12,23,1.20,
2021,12,24,1.90,
2021,12,25,1.30,
2021,12,26,1.20,
2021,12,27,0.80,
2021,12,28,1.50,
2021,12,29,0.20,
2021,12,30,1.10,
2021,12,31,1.10,
2020,1,1,1.70,
2020,1,2,0.90,
2020,1,3,1.30,
2020,1,4,1.20,
2020,1,5,1.60,
2020,1,6,1.00,
2020,1,7,1.60,
2020,1,8,2.10,
2020,1,9,2.10,
2020,1,10,0.00,
2020,1,11,0.70,
2020,1,12,0.00,
2020,1,13,0.40,
2020,1,14,1.00,
2020,1,15,0.50,
2020,1,16,0.50,
2020,1,17,0.00,
2020,1,18,1.30,
2020,1,19,0.90,
2020,1,20,0.90,
2020,1,21,1.00,
2020,1,22,0.00,
2020,1,23,0.00,
2020,1,24,0.20,
2020,1,25,0.60,
2020,1,26,1.20,
2020,1,27,0.70,
2020,1,28,0.00,
2020,1,29,0.50,
2020,1,30,0.20,
2020,1,31,1.30,
2020,2,1,2.20,
2020,2,2,2.70,
2020,2,3,0.10,
2020,2,4,0.20,
2020,2,5,0.10,
2020,2,6,1.70,
2020,2,7,1.10,
2020,2,8,1.80,
2020,2,9,1.30,
2020,2,10,1.40,
2020,2,11,1.40,
2020,2,12,0.20,
2020,2,13,1.10,
2020,2,14,0.80,
2020,2,15,1.80,
2020,2,16,2.00,
2020,2,17,1.70,
2020,2,18,1.70,
2020,2,19,0.90,
2020,2,20,1.70,
2020,2,21,2.20,
2020,2,22,1.80,
2020,2,23,0.90,
2020,2,24,0.70,
2020,2,25,0.70,
2020,2,26,2.00,
2020,2,27,1.60,
2020,2,28,2.80,
2020,2,29,3.80,
2020,3,1,2.90,
2020,3,2,2.30,
2020,3,3,3.10,
2020,3,4,2.50,
2020,3,5,3.30,
2020,3,6,2.60,
2020,3,7,4.00,
2020,3,8,4.50,
2020,3,9,0.20,
2020,3,10,1.40,
2020,3,11,3.30,
2020,3,12,3.00,
2020,3,13,0.50,
2020,3,14,0.40,
2020,3,15,0.30,
2020,3,16,0.50,
2020,3,17,0.80,
2020,3,18,1.90,
2020,3,19,4.50,
2020,3,20,2.90,
2020,3,21,2.40,
2020,3,22,0.10,
2020,3,23,3.00,
2020,3,24,1.00,
2020,3,25,3.20,
2020,3,26,0.30,
2020,3,27,0.20,
2020,3,28,3.70,
2020,3,29,4.90,
2020,3,30,3.60,
2020,3,31,3.70,
2020,4,1,5.20,
2020,4,2,1.50,
2020,4,3,2.00,
2020,4,4,2.20,
2020,4,5,2.40,
2020,4,6,3.50,
2020,4,7,5.60,
2020,4,8,5.40,
2020,4,9,3.80,
2020,4,10,2.40,
2020,4,11,5.80,
2020,4,12,0.40,
2020,4,13,3.10,
2020,4,14,3.30,
2020,4,15,3.30,
2020,4,16,0.40,
2020,4,17,2.30,
2020,4,18,4.60,
2020,4,19,3.40,
2020,4,20,4.50,
2020,4,21,4.90,
2020,4,22,0.90,
2020,4,23,4.90,
2020,4,24,0.40,
2020,4,25,3.70,
2020,4,26,3.90,
2020,4,27,6.00,
2020,4,28,3.10,
2020,4,29,4.40,
2020,4,30,5.40,
2020,5,1,3.90,
2020,5,2,4.20,
2020,5,3,5.50,
2020,5,4,1.50,
2020,5,5,5.60,
2020,5,6,4.90,
2020,5,7,0.50,
2020,5,8,4.90,
2020,5,9,3.30,
2020,5,10,4.80,
2020,5,11,0.50,
2020,5,12,1.20,
2020,5,13,2.00,
2020,5,14,3.90,
2020,5,15,2.10,
2020,5,16,2.30,
2020,5,17,3.50,
2020,5,18,4.10,
2020,5,19,3.70,
2020,5,20,2.90,
2020,5,21,1.80,
2020,5,22,4.00,
2020,5,23,6.20,
2020,5,24,4.90,
2020,5,25,1.40,
2020,5,26,0.90,
2020,5,27,2.50,
2020,5,28,3.90,
2020,5,29,5.60,
2020,5,30,4.50,
2020,5,31,5.10,
2020,6,1,6.80,
2020,6,2,7.40,
2020,6,3,5.30,
2020,6,4,5.60,
2020,6,5,5.60,
2020,6,6,6.10,
2020,6,7,6.70,
2020,6,8,5.50,
2020,6,9,5.30,
2020,6,10,6.10,
2020,6,11,6.20,
2020,6,12,6.30,
2020,6,13,6.40,
2020,6,14,6.50,
2020,6,15,6.30,
2020,6,16,6.30,
2020,6,17,7.40,
2020,6,18,6.70,
2020,6,19,1.10,
2020,6,20,5.50,
2020,6,21,1.40,
2020,6,22,6.10,
2020,6,23,5.60,
2020,6,24,6.10,
2020,6,25,6.10,
2020,6,26,5.00,
2020,6,27,5.70,
2020,6,28,6.00,
2020,6,29,6.50,
2020,6,30,6.70,
2020,7,1,5.30,
2020,7,2,5.40,
2020,7,3,3.90,
2020,7,4,5.20,
2020,7,5,5.30,
2020,7,6,4.00,
2020,7,7,5.40,
2020,7,8,6.20,
2020,7,9,5.40,
2020,7,10,6.00,
2020,7,11,4.20,
2020,7,12,6.10,
2020,7,13,6.40,
2020,7,14,4.80,
2020,7,15,4.60,
2020,7,16,4.60,
2020,7,17,5.10,
2020,7,18,6.10,
2020,7,19,5.10,
2020,7,20,3.30,
2020,7,21,4.00,
2020,7,22,5.90,
2020,7,23,5.70,
2020,7,24,5.50,
2020,7,25,5.80,
2020,7,26,5.80,
2020,7,27,2.30,
2020,7,28,3.80,
2020,7,29,2.50,
2020,7,30,1.50,
2020,7,31,4.60,
2020,8,1,4.60,
2020,8,2,5.10,
2020,8,3,5.20,
2020,8,4,4.30,
2020,8,5,5.20,
2020,8,6,3.30,
2020,8,7,5.10,
2020,8,8,6.60,
2020,8,9,5.00,
2020,8,10,4.30,
2020,8,11,4.60,
2020,8,12,2.90,
2020,8,13,4.90,
2020,8,14,5.40,
2020,8,15,5.30,
2020,8,16,2.30,
2020,8,17,5.40,
2020,8,18,3.80,
2020,8,19,5.20,
2020,8,20,5.30,
2020,8,21,5.50,
2020,8,22,5.20,
2020,8,23,5.30,
2020,8,24,5.50,
2020,8,25,5.30,
2020,8,26,5.70,
2020,8,27,5.60,
2020,8,28,5.40,
2020,8,29,3.20,
2020,8,30,4.50,
2020,8,31,3.50,
2020,9,1,2.50,
2020,9,2,4.30,
2020,9,3,4.80,
2020,9,4,4.70,
2020,9,5,4.80,
2020,9,6,5.90,
2020,9,7,4.90,
2020,9,8,0.90,
2020,9,9,0.20,
2020,9,10,0.90,
2020,9,11,0.70,
2020,9,12,4.10,
2020,9,13,4.40,
2020,9,14,4.30,
2020,9,15,3.80,
2020,9,16,4.10,
2020,9,17,3.40,
2020,9,18,3.40,
2020,9,19,3.30,
2020,9,20,3.40,
2020,9,21,3.90,
2020,9,22,3.50,
2020,9,23,1.80,
2020,9,24,4.40,
2020,9,25,5.50,
2020,9,26,5.10,
2020,9,27,0.70,
2020,9,28,3.20,
2020,9,29,3.80,
2020,9,30,3.90,
2020,10,1,3.40,
2020,10,2,3.40,
2020,10,3,3.20,
2020,10,4,3.40,
2020,10,5,3.50,
2020,10,6,3.80,
2020,10,7,3.70,
2020,10,8,3.90,
2020,10,9,4.50,
2020,10,10,3.30,
2020,10,11,4.20,
2020,10,12,3.70,
2020,10,13,3.30,
2020,10,14,4.10,
2020,10,15,2.60,
2020,10,16,2.40,
2020,10,17,2.80,
2020,10,18,0.70,
2020,10,19,0.70,
2020,10,20,0.60,
2020,10,21,0.20,
2020,10,22,2.20,
2020,10,23,0.60,
2020,10,24,0.30,
2020,10,25,0.00,
2020,10,26,0.00,
2020,10,27,0.50,
2020,10,28,0.60,
2020,10,29,2.50,
2020,10,30,2.50,
2020,10,31,3.30,
2020,11,1,2.20,
2020,11,2,2.80,
2020,11,3,3.30,
2020,11,4,2.70,
2020,11,5,2.60,
2020,11,6,3.00,
2020,11,7,4.00,
2020,11,8,3.70,
2020,11,9,1.60,
2020,11,10,0.60,
2020,11,11,2.00,
2020,11,12,1.70,
2020,11,13,1.70,
2020,11,14,2.90,
2020,11,15,1.90,
2020,11,16,2.10,
2020,11,17,2.50,
2020,11,18,3.50,